Location: Ferwoude
(53.0083°N, 5.4368°E)
Time: 02:59:53
(UTC+00:00)

Daily predictions for brighter satellites

Satellite Brightness Start Highest point End
(mag) Time Altitude Azimuth Time Altitude Azimuth Time Altitude Azimuth
ATLAS CENTAUR R/B 4.0 00:08:02 10° SW 00:14:09 82° SE 00:31:17 10° ENE
Cosmos 1825 3.2 00:13:02 17° SSE 00:15:28 37° E 00:18:58 10° NNE
Cosmos 990 Rocket 4.0 00:13:24 10° NNW 00:18:35 70° WSW 00:22:38 17° SSE
Cosmos 1408 2.6 00:19:18 22° S 00:21:31 73° E 00:25:13 10° NNE
Cosmos 1242 Rocket 3.9 00:19:18 10° N 00:22:37 34° ENE 00:25:58 10° SE
Cosmos 1656 Rocket 3.7 00:18:33 10° NNW 00:24:18 90° ENE 00:29:59 10° SSE
Cosmos 2221 3.1 00:20:21 10° N 00:24:36 53° ENE 00:28:24 12° SSE
SL-16 R/B 2.4 00:19:56 13° SW 00:24:59 71° NW 00:30:41 10° NNE
Cosmos 405 Rocket 3.1 00:23:36 20° SSE 00:25:54 52° E 00:29:30 10° NNE
Cosmos 2058 3.8 00:24:22 16° SSE 00:27:18 40° E 00:31:09 10° NNE
USA 229 DEB 3.8 00:22:35 17° SSW 00:27:35 59° SE 00:34:22 10° NE
X-37B 2.5 00:28:46 16° SE 00:28:46 16° SE 00:29:56 10° SE
USA 229 3.8 00:22:43 17° SSW 00:27:41 59° SE 00:34:28 10° NE
Cosmos 2237 Rocket 3.6 00:23:13 10° WSW 00:28:18 34° NW 00:33:26 10° NNE
Cosmos 1898 Rocket 3.5 00:26:40 10° NNW 00:31:54 68° WSW 00:36:11 15° S
Cosmos 1937 Rocket 3.5 00:26:50 10° NNW 00:32:13 87° WSW 00:37:19 11° SSE
Cosmos 2369 Rocket 2.4 00:28:45 10° NW 00:34:21 55° WSW 00:38:58 15° S
NOSS 8 (F) 4.1 00:33:59 23° SSW 00:35:44 63° SE 00:38:41 10° NE
Nadezhda 4 Rocket 4.4 00:30:48 14° SSE 00:36:00 56° E 00:41:58 10° NNE
NOSS 3-1 (C) 3.3 00:31:10 13° SW 00:36:10 87° SE 00:42:49 10° NE
Aureole 3 Rocket 4.1 00:32:50 10° N 00:36:21 39° ENE 00:40:55 10° SE
ATLAS 3B R/B 4.3 00:31:09 10° WNW 00:37:18 36° NNW 00:43:43 10° NE
SJ 16-02 2.9 00:34:33 10° NW 00:37:50 21° W 00:40:01 15° SW
GP-B 4.4 00:34:47 10° NNW 00:38:39 30° WNW 00:41:51 13° SW
YAOGAN 11 4.1 00:35:34 16° S 00:39:03 78° WSW 00:43:36 10° NNW
FALCON 9 DEB 2.8 00:36:03 10° W 00:39:12 88° S 00:42:21 10° E
Cosmos 1356 3.4 00:37:29 22° SSW 00:39:33 75° WNW 00:42:57 10° N
CREW DRAGON DEMO-1 DEB 3.3 00:40:05 26° SSE 00:40:09 27° SSE 00:42:17 10° E
USA 215 3.4 00:38:42 10° ENE 00:45:15 78° NNW 00:51:47 10° WSW
NOSS 2-3 (E) 3.7 00:42:32 15° SW 00:46:03 88° SE 00:51:16 10° NE
NOSS 3-1 (A) 3.4 00:42:42 16° SSW 00:47:09 68° SE 00:53:39 10° NE
Cosmos 2263 4.3 00:42:27 10° NW 00:48:02 58° WSW 00:53:07 12° S
Cosmos 1825 Rocket 4.1 00:45:41 17° SW 00:48:59 49° WNW 00:53:20 10° N
CZ-4 R/B 3.9 00:45:13 10° NNE 00:49:53 73° ESE 00:53:33 17° S
Helios 1B rocket 4.1 00:47:01 10° NE 00:50:28 25° E 00:53:53 10° SSE
ATLAS 5 CENTAUR R/B 3.5 00:48:04 10° SSE 00:50:32 16° ESE 00:53:14 10° ENE
Meteor 2-2 Rocket 4.4 00:48:46 10° NNW 00:54:47 71° W 01:00:07 13° S
FALCON 9 DEB 2.7 00:53:10 10° W 00:56:15 75° SSW 00:59:20 10° ESE
Cosmos 1633 4.0 00:53:22 11° SSE 00:56:19 30° E 00:59:28 10° NNE
ADEOS Rocket 4.1 00:50:17 10° SE 00:57:06 51° ENE 01:03:18 10° N
CZ-3B R/B 2.9 00:46:00 10° W 00:57:08 77° N 01:00:25 10° E
UNK 4.1 00:55:01 10° SSE 00:59:34 65° ENE 01:04:11 10° N
Cosmos 1606 2.8 00:56:52 10° N 01:00:44 76° ENE 01:04:12 12° SSE
NOSS 8 (H) 4.1 01:00:24 19° SSW 01:02:24 67° SE 01:05:21 10° NE
FALCON 9 DEB 2.7 00:59:54 10° W 01:03:03 78° S 01:06:09 10° ESE
Helios 1A 3.3 01:00:06 17° S 01:03:11 51° W 01:07:18 10° NNW
Cosmos 468 Rocket 4.1 01:00:57 15° SSW 01:05:15 76° WNW 01:10:32 10° NNE
FALCON 9 DEB 2.7 01:03:23 10° W 01:06:30 71° SSW 01:09:35 10° ESE
SL-16 R/B 2.6 01:00:47 10° SSE 01:06:59 87° ENE 01:13:13 10° NNW
Cosmos 372 Rocket 4.0 01:01:56 10° NNW 01:07:12 78° WSW 01:12:26 10° SSE
USA 305 4.3 01:10:32 15° S 01:12:57 23° SE 01:16:22 10° E
Lacrosse 4 Rocket 1.3 01:09:29 10° NW 01:13:38 85° SW 01:17:41 10° SSE
USA 290 3.8 01:11:15 12° SSE 01:13:40 27° ESE 01:16:27 10° NE
Cosmos 1953 Rocket 4.3 01:10:29 14° SW 01:13:55 42° WNW 01:18:09 10° N
Cosmos 1092 Rocket 4.2 01:11:05 11° S 01:16:59 67° E 01:23:07 10° NNE
CENTAUR R/B 4.1 01:09:54 10° NW 01:17:17 53° NNE 01:25:41 10° ESE
Resurs 1-4 Rocket 2.4 01:14:05 10° NNE 01:19:24 67° ESE 01:24:23 12° S
Cosmos 1437 Rocket 3.6 01:16:06 10° NNW 01:19:39 34° W 01:22:18 15° SSW
Cosmos 2098 Rocket 3.3 01:15:08 14° SSW 01:19:47 82° W 01:24:03 10° N
NOSS 5 (C) 4.1 01:16:54 10° NW 01:19:54 87° SW 01:23:22 10° SE
Cosmos 1763 Rocket 3.8 01:15:44 13° SW 01:20:13 61° WNW 01:25:22 10° NNE
BREEZE-M R/B 4.2 01:18:12 14° S 01:20:18 21° SE 01:24:08 10° E
Cosmos 1892 4.4 01:21:02 10° WSW 01:24:11 23° WNW 01:27:21 10° NNW
SL-4 R/B 1.6 01:21:55 10° W 01:25:41 71° S 01:29:12 10° E
Cosmos 1943 Rocket 4.1 01:24:13 10° WNW 01:26:40 13° W 01:29:05 10° WSW
NOSS 2-3 (D) 4.3 01:22:52 10° WSW 01:27:08 59° NW 01:32:26 10° NE
Cosmos 1842 Rocket 4.2 01:25:39 10° NNW 01:29:42 40° W 01:33:14 13° SSW
NPP 3.9 01:25:11 10° NNE 01:30:35 67° ESE 01:35:57 10° S
ADEOS II 3.0 01:25:56 10° NNE 01:30:57 43° E 01:35:56 10° S
MINOTAUR 4 R/B 4.4 01:27:30 10° SSE 01:31:00 67° ENE 01:34:32 10° N
NOSS 2-2 (D) 4.2 01:30:21 13° S 01:32:58 31° SE 01:36:21 10° ENE
Lacrosse 5 rocket 1.5 01:30:40 10° WNW 01:34:15 64° NNE 01:37:52 10° ESE
USA 306 4.0 01:32:05 13° SSW 01:35:12 30° SE 01:38:57 10° E
FALCON 9 DEB 4.0 01:32:42 10° W 01:35:39 27° SSW 01:38:35 10° SSE
Cosmos 921 Rocket 2.9 01:32:38 13° SSW 01:36:19 86° ESE 01:40:33 10° NNE
Exosat Rocket 4.1 01:30:27 10° SW 01:36:30 59° WNW 01:41:33 10° NNE
Meteor 2-3 Rocket 4.5 01:32:28 10° SSE 01:37:48 48° E 01:43:10 10° NNE
CZ-2D R/B 2.1 01:32:54 10° NNE 01:38:09 88° ESE 01:43:15 11° SSW
Cosmos 1943 3.4 01:33:25 12° SW 01:38:44 73° NW 01:44:26 10° NNE
Alouette 2 Rocket 4.5 01:35:44 10° N 01:39:11 41° ENE 01:42:50 10° SE
IDEFIX/ARIANE 42P 4.0 01:40:32 10° NNE 01:45:16 33° E 01:49:56 10° SSE
Cosmos 1603 4.0 01:41:52 10° SW 01:47:29 63° NW 01:53:07 10° NNE
Cosmos 2151 3.0 01:45:03 10° S 01:49:15 79° E 01:53:28 10° NNE
AQUA 3.9 01:45:27 10° NNE 01:50:15 79° ESE 01:55:01 10° SSW
Cosmos 1825 3.8 01:48:00 10° WSW 01:51:04 23° WNW 01:54:08 10° NNW
Cosmos 1437 3.5 01:51:13 10° NW 01:53:41 27° W 01:55:51 12° SSW
Cosmos 1076 Rocket 3.7 01:49:45 11° SSW 01:53:45 58° WNW 01:57:58 10° N
Meteor 1-26 Rocket 4.4 01:47:59 10° NNW 01:53:50 86° ENE 01:59:49 10° SSE
Cosmos 1242 Rocket 4.0 01:54:26 10° NW 01:57:16 22° W 02:00:05 10° SW
Cosmos 540 Rocket 4.0 01:55:09 10° SW 02:00:07 51° WNW 02:05:08 10° NNE
Cosmos 2221 4.1 01:58:39 10° NW 02:01:47 20° W 02:04:54 10° SW
Cosmos 1656 4.4 01:56:39 10° NNW 02:02:20 61° NE 02:07:58 10° SE
X-37B 2.3 02:01:28 10° SW 02:03:35 16° SSW 02:05:41 10° SSE
Cosmos 2058 4.4 02:00:58 10° WSW 02:04:22 25° WNW 02:07:46 10° N
IRS-1D 3.9 01:59:52 10° NNE 02:05:00 62° ESE 02:10:00 10° S
BREEZE-M DEB (TANK) 2.0 02:03:42 10° W 02:05:59 31° SSW 02:08:10 10° SE
Cosmos 841 Rocket 4.0 02:03:26 10° SW 02:08:27 51° WNW 02:13:29 10° NNE
Cosmos 1812 3.8 02:04:45 10° N 02:08:29 46° ENE 02:12:11 10° SSE
Cosmos 1553 Rocket 4.0 02:02:20 10° NNW 02:08:41 80° W 02:14:53 10° S
SL-16 R/B 4.2 02:05:45 10° W 02:10:07 22° NNW 02:14:32 10° NNE
NOSS 2-2 (E) 3.1 02:08:11 10° SW 02:11:40 83° SE 02:15:44 10° NE
Cosmos 2292 Rocket 2.6 02:10:25 10° S 02:13:22 81° E 02:16:26 10° NNE
CREW DRAGON DEMO-1 DEB 2.2 02:11:11 10° WSW 02:13:35 61° S 02:16:01 10° E
Cosmos 1697 Rocket 4.1 02:08:15 10° NNW 02:13:42 45° NE 02:19:07 10° ESE
S3M 4.1 02:08:34 10° N 02:14:45 83° E 02:20:58 10° SSE
SL-08 R/B 4.5 02:10:16 10° SE 02:14:45 47° ENE 02:19:21 10° N
FALCON 9 DEB 3.4 02:11:49 10° W 02:14:45 38° SSW 02:17:42 10° SE
Cosmos 1782 2.8 02:11:25 10° NNW 02:15:26 77° W 02:19:26 10° S
Cosmos 2369 Rocket 4.2 02:16:11 10° W 02:17:08 10° W 02:18:03 10° WSW
Cosmos 1271 Rocket 2.8 02:13:38 10° N 02:17:23 80° ENE 02:21:09 10° SSE
USA 229 DEB 4.4 02:12:17 10° WSW 02:18:44 53° NNW 02:25:41 10° NE
USA 307 3.3 02:14:38 10° SW 02:18:44 49° SSE 02:22:51 10° ENE
USA 229 4.4 02:12:23 10° WSW 02:18:50 53° NNW 02:25:47 10° NE
USA 281 3.2 02:12:46 10° SSE 02:19:21 81° WSW 02:25:59 10° NNW
Cosmos 2026 Rocket 4.3 02:16:42 10° SSW 02:22:53 58° WNW 02:29:11 10° N
Aureole 3 Rocket 4.5 02:20:41 10° NW 02:23:44 22° W 02:27:28 10° SW
NOSS 2-2 (C) 3.1 02:21:52 10° SW 02:25:21 86° SE 02:29:19 10° NE
Helios 1B rocket 3.2 02:21:59 10° N 02:25:51 41° WNW 02:29:41 10° SW
USA 215 3.8 02:21:36 10° E 02:28:03 64° N 02:34:30 10° WNW
